Theta_e
299 299 298 297 298 299 298 298 299 299 299 299 299 302 309 313 314 309 304 308 312 315 319 316 315 320 320 314 312 312 313 313 312 310 308 309 310 308 308 309 310 310 309 310 311 313 314 311 311 314 312 311 311 309 312 313 311 316 318 313 317 324 323 317 315 317 319 316 313 312 312 314 316 314 315 316 312 320 330 329 327 324 320 318 316 318 330
298 299 298 297 298 299 298 298 299 299 299 298 300 306 311 311 311 310 306 306 311 313 313 314 317 320 317 313 312 311 309 309 309 308 308 308 309 309 310 310 309 309 310 312 313 312 312 312 311 313 314 313 311 309 311 316 318 318 316 314 316 317 316 316 316 317 318 317 314 315 317 316 314 313 314 313 314 318 319 318 323 325 321 321 318 322 331
298 299 298 297 297 298 299 298 299 300 299 299 301 305 308 309 310 313 310 305 307 311 309 309 314 316 315 314 313 312 310 308 307 307 308 307 307 309 310 310 309 311 314 315 312 310 312 314 313 314 316 315 312 310 309 313 323 324 320 322 324 319 318 324 324 317 315 316 317 320 320 313 312 314 314 314 315 315 313 315 322 321 315 316 323 329 329
298 298 298 297 296 298 299 298 299 301 300 300 301 302 307 312 311 312 313 309 308 309 307 306 310 311 312 313 310 309 312 310 307 307 307 306 306 307 306 307 311 315 316 317 315 311 312 315 314 314 316 316 313 313 310 309 317 325 323 324 328 324 317 320 325 320 318 318 317 317 317 314 314 313 313 315 315 316 318 318 320 319 315 317 324 326 322
298 298 298 296 296 298 299 298 299 301 301 301 301 302 305 310 308 306 310 311 310 309 306 305 306 307 310 311 307 307 309 309 308 309 308 306 307 307 304 304 310 313 314 317 317 313 314 315 313 311 312 314 314 313 309 307 312 320 319 319 328 329 316 313 319 317 313 314 312 310 314 316 315 312 311 314 317 321 322 315 313 316 318 320 323 319 320
297 298 298 296 296 298 299 299 299 301 302 302 304 305 304 306 306 303 304 307 308 308 307 306 305 305 307 307 305 306 307 308 308 309 309 307 307 310 307 303 304 305 309 317 316 312 315 314 312 311 310 312 315 314 312 309 309 314 316 316 324 329 317 311 316 315 311 312 311 312 315 315 315 316 315 314 316 319 318 314 313 314 319 325 323 317 317
297 297 298 296 296 298 299 298 298 300 302 302 303 305 304 305 306 305 305 305 305 305 306 307 306 306 306 305 304 304 306 307 305 306 311 310 307 309 308 303 303 303 308 316 313 309 312 312 309 309 310 312 314 314 315 313 307 309 315 315 317 321 315 312 317 316 311 313 313 311 313 315 314 317 316 316 318 317 316 317 313 311 316 321 320 319 315
297 297 297 296 296 297 298 299 298 299 301 302 301 301 302 302 303 305 306 305 303 304 305 306 308 308 306 306 304 303 304 307 304 301 306 309 308 308 306 303 303 302 304 310 309 305 308 309 306 306 309 313 312 310 310 310 307 309 312 312 316 319 314 313 321 319 311 313 315 312 314 317 315 315 314 314 315 314 316 317 313 312 313 311 313 319 315
297 297 297 296 296 297 298 299 298 298 300 301 300 300 299 299 298 300 304 304 301 303 304 305 307 308 306 305 305 304 303 305 306 303 301 303 305 306 305 304 304 304 304 306 304 303 305 307 305 305 306 308 308 307 307 307 308 310 310 310 317 321 313 312 322 321 311 311 313 312 315 316 313 314 314 314 314 314 314 313 309 310 312 310 313 317 312
297 297 297 296 296 296 297 299 298 298 298 298 299 299 298 299 299 298 303 305 300 300 302 303 305 306 305 304 304 304 304 303 306 307 302 300 302 303 304 306 306 305 305 304 302 301 303 305 304 304 304 304 305 306 306 305 306 308 309 311 315 318 314 312 318 318 310 309 311 313 315 316 315 313 310 309 311 310 309 309 305 304 307 312 316 312 306
296 297 297 296 296 296 297 298 298 298 298 297 298 298 297 299 300 300 307 307 300 299 302 302 303 303 303 304 303 303 304 303 305 307 303 301 301 301 302 306 309 306 302 301 300 299 299 301 302 301 301 303 304 304 304 306 307 306 307 309 312 317 317 315 318 317 310 309 311 311 313 316 314 308 304 305 309 309 309 308 304 302 304 307 309 306 304
296 297 296 296 296 295 297 298 298 298 298 297 298 297 297 298 298 301 310 307 299 300 303 300 300 301 301 302 303 303 303 302 303 305 303 302 302 301 301 304 307 306 302 299 298 300 301 301 303 304 304 304 306 305 304 307 308 305 304 307 313 319 319 315 317 320 314 310 311 312 313 313 309 305 303 304 305 305 306 304 302 303 305 304 304 304 304
296 296 297 296 295 295 297 298 298 297 297 297 297 297 298 298 298 302 309 306 299 299 301 299 298 299 300 300 302 303 302 302 303 304 304 302 302 303 301 301 302 302 300 298 301 306 306 306 309 308 306 309 311 306 304 305 306 305 305 306 310 317 319 314 313 313 311 311 313 313 310 306 304 306 307 305 304 305 307 307 304 303 305 304 304 304 303
296 296 297 296 295 295 296 298 298 297 297 297 297 297 298 297 299 302 304 304 300 296 299 302 300 299 301 301 302 303 302 302 304 305 303 303 302 302 301 300 300 299 297 299 305 309 307 311 315 310 305 310 310 305 304 304 303 304 305 305 307 312 317 316 312 308 310 313 312 309 307 306 307 308 306 304 305 305 307 309 304 301 303 303 303 304 304
296 296 296 296 295 295 296 298 298 298 297 297 297 297 297 297 299 300 300 304 304 299 298 300 298 299 301 300 300 302 303 304 304 304 304 303 302 302 301 300 298 297 298 302 308 310 309 311 315 311 307 309 306 303 305 305 305 304 303 304 307 309 311 313 312 308 309 314 312 309 311 313 310 307 305 303 303 302 304 308 306 303 303 303 303 306 306
296 296 296 296 296 295 296 298 298 298 298 297 297 297 297 297 299 298 297 304 307 302 299 297 296 298 301 301 300 301 301 302 303 305 307 305 303 302 300 298 297 298 303 306 309 311 311 309 309 307 306 304 303 303 304 305 307 305 302 303 307 308 310 314 314 309 308 313 315 312 313 312 307 304 304 303 302 302 303 308 307 303 302 301 302 303 303
295 295 296 296 296 295 296 297 298 298 298 297 297 297 296 297 298 297 298 303 304 300 299 299 298 300 302 302 301 299 300 301 301 302 304 302 302 303 301 299 299 300 305 310 310 311 310 307 306 306 303 301 302 304 304 305 307 306 303 304 307 310 311 313 314 312 310 311 312 309 308 307 303 302 303 302 301 301 305 311 309 302 300 300 300 300 301
295 295 295 296 295 295 296 297 298 298 298 297 296 297 296 297 298 297 299 305 305 300 298 297 298 300 299 298 298 298 299 301 300 301 303 302 300 301 299 300 301 300 303 309 311 309 307 304 303 303 302 300 301 303 303 304 304 302 301 304 307 309 310 309 309 310 311 312 312 308 306 304 302 301 302 302 301 303 307 310 306 300 299 300 299 299 300
295 295 295 295 295 295 295 297 298 298 298 297 296 296 296 297 298 297 299 304 305 300 296 296 296 297 297 296 298 299 298 298 300 302 304 303 300 299 299 300 300 300 302 307 307 305 304 302 300 301 303 301 300 302 301 301 301 299 300 303 305 306 307 307 306 306 307 308 309 308 306 302 300 300 301 302 305 306 305 303 300 299 299 298 298 299 299
295 296 296 296 295 295 295 297 297 298 298 298 296 296 296 296 298 298 298 303 306 302 298 297 296 296 296 296 298 300 299 300 301 301 302 301 299 300 304 304 302 300 302 306 305 302 303 303 300 300 302 300 299 301 300 299 299 298 299 301 301 302 305 306 303 303 305 306 307 308 306 300 298 300 302 303 305 305 301 299 299 301 300 299 299 299 299
295 295 296 296 295 295 295 296 297 297 298 298 296 295 296 296 298 298 297 301 305 304 299 298 297 296 296 296 297 298 298 298 299 299 300 300 299 301 305 304 301 300 300 301 302 300 300 301 299 299 300 299 300 301 300 302 301 298 297 301 301 301 304 305 303 302 306 309 306 304 302 298 297 301 302 300 300 301 301 300 299 299 300 301 301 299 298
295 295 295 295 294 294 295 296 297 297 298 298 297 295 295 296 298 299 298 298 301 301 298 298 297 296 296 297 296 297 298 297 297 298 299 300 299 300 302 302 300 299 298 300 301 299 299 299 299 300 300 299 300 299 299 302 303 299 298 301 301 300 301 303 302 300 302 304 302 299 299 299 298 299 299 298 299 301 302 300 299 298 299 300 300 299 299
295 295 295 294 293 293 294 295 297 297 297 298 298 295 295 297 298 298 298 297 298 298 296 297 297 297 298 298 296 296 297 297 298 297 298 300 300 299 300 300 299 298 299 300 299 299 301 300 299 300 299 298 299 301 299 301 302 299 298 299 298 299 300 300 300 298 297 299 299 298 299 298 296 297 298 297 299 300 300 300 299 299 299 300 299 300 300
295 295 294 294 293 293 293 293 295 296 296 298 298 295 294 296 297 298 299 299 300 299 297 299 301 300 298 298 297 296 297 297 297 297 297 299 300 299 299 298 298 301 303 299 295 298 301 299 297 300 300 297 300 302 300 300 300 298 299 301 299 298 300 301 300 299 300 300 297 296 297 296 296 297 297 297 298 299 299 300 298 297 299 299 298 299 300
295 294 294 293 294 294 293 292 294 294 295 297 298 296 294 294 295 298 299 300 301 302 302 303 303 299 297 297 297 296 296 297 296 297 298 297 298 300 299 296 297 298 298 296 297 301 303 298 298 302 301 297 298 300 298 298 299 298 300 302 300 298 299 300 300 301 302 300 297 297 298 297 297 298 298 298 299 298 298 300 299 298 299 297 295 296 298
294 294 293 293 294 294 293 293 293 293 294 297 298 296 295 294 294 296 297 297 298 301 302 303 303 299 296 297 297 296 297 297 296 297 297 297 297 298 297 297 297 296 295 296 300 304 302 300 301 303 301 297 298 300 298 296 297 297 298 299 298 298 299 298 298 299 299 298 297 297 297 296 297 297 298 299 300 299 300 301 300 300 300 299 296 295 295
295 293 292 293 294 294 294 294 293 294 295 297 298 297 296 295 294 294 295 296 297 299 301 303 305 301 296 296 297 297 296 296 296 297 297 297 297 297 297 297 299 300 299 300 303 303 303 302 300 300 299 298 297 297 296 295 296 299 299 298 298 299 299 298 298 300 300 299 300 299 298 299 299 298 297 298 299 299 300 300 300 300 301 301 300 297 294
295 293 293 293 294 294 295 294 294 295 296 296 298 298 297 296 296 294 294 294 296 299 300 303 303 299 295 296 297 296 296 296 296 297 297 296 297 297 297 296 297 301 301 300 300 302 302 300 297 296 298 299 298 296 296 296 299 300 299 298 299 299 299 301 304 303 300 301 303 301 300 301 300 298 299 299 298 298 299 299 300 301 299 297 299 299 297
294 293 293 294 294 295 295 294 295 296 296 296 298 299 298 297 296 295 294 293 295 298 300 302 301 298 296 297 297 296 296 296 296 296 296 296 296 296 296 296 298 301 302 299 299 300 300 299 298 297 296 297 297 297 297 299 300 300 300 300 300 298 298 302 305 301 297 299 303 301 300 300 299 299 300 299 295 296 299 299 298 297 294 292 294 295 296
294 293 293 295 296 295 295 295 295 296 297 297 298 300 301 299 297 297 296 293 293 297 299 301 301 298 296 297 298 297 296 296 296 296 296 295 295 295 294 297 299 300 299 298 297 299 300 300 299 297 296 296 298 298 297 297 299 301 303 303 301 299 298 299 301 299 296 299 303 301 299 300 298 296 296 295 292 293 297 298 296 295 293 292 291 291 292
294 293 293 296 297 296 296 295 296 296 297 297 297 298 300 298 297 298 297 293 294 297 298 300 302 300 299 299 297 296 295 295 295 296 295 295 295 294 293 295 297 297 298 299 296 295 297 298 297 296 297 299 302 302 299 298 298 300 301 301 302 301 299 298 298 298 297 300 301 298 297 298 298 295 295 294 292 292 294 294 294 294 294 292 292 291 291
294 293 294 295 297 297 296 296 296 297 297 297 297 298 298 297 298 299 297 294 295 297 298 300 301 300 301 301 297 295 295 295 295 296 296 296 295 294 294 294 294 296 299 300 297 295 296 297 297 297 297 299 302 303 300 299 301 302 301 301 301 301 300 299 298 298 298 299 298 296 297 298 297 296 295 294 291 291 292 292 292 293 293 292 292 292 291
293 293 294 295 297 298 297 296 296 297 297 297 298 298 297 297 298 298 296 295 295 296 298 300 299 298 299 298 296 294 296 298 299 299 298 296 295 294 296 297 296 295 296 297 296 296 296 296 297 296 295 297 300 301 298 299 303 304 301 299 299 301 300 298 297 298 298 297 295 296 297 297 295 293 292 291 291 292 292 292 292 292 293 292 292 292 291
293 293 294 295 296 298 298 297 297 297 297 298 298 298 297 297 297 297 296 295 296 296 297 298 299 301 300 300 299 297 295 297 300 300 299 297 294 294 297 299 298 296 296 297 297 296 295 296 296 296 296 296 297 297 298 301 304 303 299 297 298 299 298 297 298 300 299 297 296 296 293 292 292 292 292 293 293 292 291 292 293 294 294 294 293 292 291
294 294 294 294 296 298 299 299 298 298 297 297 298 297 297 297 297 297 296 295 295 299 300 297 297 300 301 302 304 300 295 296 297 297 297 297 294 294 297 298 298 297 295 295 296 295 295 297 297 297 297 296 295 297 300 302 303 301 297 296 298 298 297 297 299 300 298 297 298 297 292 291 293 294 294 295 295 292 292 293 293 293 294 294 293 291 290
294 294 294 295 297 299 299 298 298 298 297 297 297 297 297 297 296 296 295 295 296 301 302 298 297 298 298 300 301 297 295 298 298 297 297 297 296 297 299 298 297 297 296 296 297 296 295 296 296 295 295 296 299 302 303 302 301 300 298 297 298 298 299 300 300 299 298 296 297 297 295 294 295 295 294 296 296 293 293 294 293 293 294 294 293 291 289
295 294 295 297 298 299 299 297 297 297 296 296 296 296 297 297 296 296 297 297 297 299 298 297 299 299 297 297 299 298 297 298 298 299 301 299 296 297 298 297 297 297 296 297 298 296 295 297 297 294 296 299 303 304 301 299 299 299 298 298 298 298 299 300 299 299 298 296 295 296 296 295 296 295 295 296 296 294 294 295 294 294 294 294 293 292 290
295 295 295 297 299 300 300 297 296 296 296 296 297 297 296 297 298 299 299 299 299 299 296 296 299 299 295 295 297 297 297 297 297 298 301 299 297 297 298 297 297 296 294 296 297 294 296 299 297 294 298 302 303 300 299 297 296 295 297 300 301 300 300 300 299 298 298 297 296 297 297 296 296 295 295 295 296 295 294 294 293 292 292 292 291 291 290
296 295 294 296 299 300 298 296 295 296 296 296 297 297 297 297 297 298 298 298 299 298 297 298 301 300 297 297 299 298 296 297 298 300 300 299 297 298 298 297 296 295 293 296 296 294 294 297 295 293 298 304 303 300 298 296 294 295 297 298 296 295 296 297 295 295 297 297 296 296 295 295 295 295 295 295 295 294 293 293 292 292 292 291 291 290 289
296 294 293 295 297 297 296 296 296 297 297 297 296 297 298 298 296 296 297 298 299 298 297 299 301 298 296 297 300 298 296 296 298 300 300 299 297 296 295 295 295 294 293 296 298 296 294 295 294 293 298 305 305 301 298 297 296 297 297 294 290 289 291 292 292 292 293 293 292 292 292 292 293 293 294 294 295 294 293 292 292 292 291 291 291 290 289
295 294 294 296 296 295 295 296 296 296 297 297 297 297 297 297 296 296 297 298 299 299 298 297 298 298 296 296 298 299 297 296 296 297 299 299 298 296 295 294 294 293 293 296 298 297 295 295 294 295 300 306 304 299 297 298 299 299 295 291 289 290 291 291 291 292 292 292 292 291 292 292 292 292 293 293 293 293 292 292 291 292 291 291 291 290 290
294 295 295 295 295 295 295 296 296 296 297 297 297 297 296 296 296 297 297 297 297 298 298 296 297 299 298 296 298 299 296 295 296 297 298 298 298 297 296 295 294 294 296 297 296 295 294 294 296 298 303 305 301 296 295 297 300 300 296 291 290 292 292 291 291 292 292 293 292 291 291 292 292 292 292 292 292 291 291 291 291 291 291 291 290 290 290
295 296 295 295 295 295 296 296 295 296 297 299 298 296 296 296 296 297 298 298 297 297 297 297 297 298 296 296 297 296 293 293 297 298 297 297 297 297 296 295 294 294 296 297 296 295 295 296 298 301 304 302 299 296 295 295 297 299 295 290 290 293 293 291 292 292 292 292 292 292 291 292 292 291 291 291 291 291 291 291 291 291 291 290 290 290 290
295 295 295 296 296 296 296 296 295 295 296 298 298 297 298 299 298 297 299 300 299 298 298 298 297 297 298 299 298 296 295 296 297 297 296 296 296 296 295 297 297 296 295 296 297 295 293 296 299 301 300 300 299 298 295 294 296 298 296 292 290 291 291 291 292 292 291 291 292 292 292 292 291 291 291 291 291 291 291 291 291 291 291 291 291 291 291
296 296 297 298 298 296 295 296 296 296 296 297 298 299 300 300 299 300 300 300 298 297 298 297 295 296 299 300 299 298 298 298 297 296 296 295 295 295 295 297 298 296 294 296 297 295 293 298 303 301 298 299 301 299 296 295 295 296 297 296 293 290 289 290 291 290 290 291 292 291 292 292 291 292 292 292 292 292 291 291 292 292 291 291 292 291 290
296 296 296 298 299 297 295 296 297 297 296 298 300 302 301 299 300 300 299 297 297 297 298 297 296 296 299 300 297 297 299 298 296 296 296 295 295 296 296 294 295 296 295 296 297 297 297 301 304 302 300 300 299 296 294 294 292 292 295 299 298 293 289 289 290 289 290 291 292 291 291 292 292 292 292 292 292 292 292 292 292 292 292 292 292 290 289
296 295 295 298 300 299 296 297 297 296 295 297 300 301 299 297 298 299 297 296 297 297 297 296 296 296 297 297 296 297 299 298 296 296 297 295 296 297 296 294 295 297 296 296 298 299 301 303 303 301 299 298 296 295 294 293 293 293 294 297 298 294 289 288 289 290 290 291 291 291 291 292 292 292 292 292 292 293 293 292 293 292 292 292 291 290 289
297 295 296 300 301 299 298 297 297 297 296 296 298 299 296 295 296 298 298 296 297 297 296 297 297 297 297 297 296 297 298 297 296 296 297 296 295 296 296 296 296 297 296 296 299 301 303 303 300 299 297 295 294 294 295 293 293 294 295 295 296 295 290 287 288 290 290 290 290 290 291 292 292 292 292 292 292 293 293 293 293 293 292 292 290 289 288
295 295 295 297 297 297 297 296 296 298 298 296 296 296 296 295 297 299 297 296 296 297 296 296 296 297 297 298 297 296 296 297 296 295 296 296 296 296 296 297 298 298 297 297 299 301 302 301 298 297 297 297 295 295 294 293 292 292 292 292 293 292 290 288 289 290 290 290 290 290 291 292 292 292 292 292 292 293 293 293 293 293 292 291 290 289 288
295 294 295 295 296 297 296 295 295 298 299 298 297 298 297 297 297 297 295 295 297 297 296 296 296 296 296 297 296 296 297 298 296 295 296 296 296 295 295 296 298 299 300 299 299 300 301 300 298 297 299 299 298 296 295 292 290 289 288 288 289 290 290 291 291 290 290 291 291 291 292 292 292 292 293 293 293 294 294 294 294 293 292 290 290 289 289
295 294 295 295 296 297 296 295 296 298 298 297 297 298 297 297 298 297 295 295 296 297 296 297 297 296 296 297 296 296 297 297 296 295 296 296 296 296 296 297 298 300 301 300 300 300 300 299 299 299 300 300 299 297 294 291 289 288 288 287 288 289 291 291 291 291 291 292 292 291 291 292 293 293 294 294 294 294 294 294 294 292 291 290 290 289 289
295 295 295 294 295 295 295 294 296 296 296 295 296 296 296 296 297 296 294 294 295 296 297 298 297 296 296 297 297 296 296 296 296 295 296 296 296 296 298 299 300 299 299 299 299 299 300 300 300 299 299 298 297 294 291 289 288 289 288 288 288 289 290 291 292 292 292 291 291 291 292 292 293 293 293 293 293 292 293 293 294 292 291 290 290 289 289
Wind_Speed
32 32 32 35 39 39 40 43 41 41 37 28 23 13 3 3 1 8 23 9 7 3 4 2 3 1 3 2 2 1 1 0 2 0 2 1 1 2 1 3 2 3 2 0 1 2 2 1 1 2 3 2 1 5 8 4 2 4 2 3 2 2 4 4 1 3 4 5 6 4 4 6 6 4 2 3 2 2 5 5 3 3 3 2 3 1 5
32 32 32 35 39 39 41 43 41 39 33 23 16 6 1 1 3 4 20 18 6 4 3 2 3 3 4 3 1 2 2 3 3 1 2 3 1 1 1 0 1 1 2 3 1 1 2 2 2 0 2 1 1 5 8 4 3 2 2 3 2 1 2 4 3 2 4 4 5 5 4 4 4 2 3 2 3 5 3 2 3 2 3 4 4 3 6
32 32 32 34 38 39 40 43 41 37 30 19 10 2 1 3 0 4 12 20 12 4 1 1 2 2 4 4 4 5 3 2 3 3 2 3 2 0 1 2 1 2 4 3 3 3 2 2 2 2 2 2 2 7 9 5 3 2 2 1 2 3 2 3 5 4 3 2 2 3 1 1 2 2 4 3 5 4 2 2 4 1 3 4 4 4 5
31 32 32 34 38 39 40 43 41 35 28 16 6 3 1 2 3 3 6 9 8 2 2 2 1 1 2 3 4 5 2 3 3 4 3 3 3 2 2 3 2 4 5 4 4 6 4 3 3 3 4 3 2 5 6 6 7 4 5 7 4 5 3 2 6 5 5 6 4 4 3 4 2 1 4 4 2 3 4 4 2 3 3 1 4 5 3
31 32 32 33 37 38 39 43 42 35 26 14 4 4 4 2 2 2 3 4 4 4 6 7 5 4 2 2 4 5 4 3 3 3 3 2 2 3 4 6 4 3 3 4 3 6 5 5 4 3 3 3 3 6 4 7 12 8 4 6 3 5 3 1 5 4 1 3 2 1 3 5 5 3 1 2 2 3 5 3 3 5 5 3 6 4 4
31 32 32 33 36 37 38 41 42 35 26 14 5 2 4 3 1 1 1 2 3 4 5 7 8 10 6 2 4 7 7 6 4 4 2 2 3 3 4 9 7 3 1 4 3 5 5 5 4 3 4 3 4 6 4 6 11 8 4 4 3 6 2 1 4 4 3 3 4 3 4 4 3 3 1 1 2 3 4 3 3 6 5 5 6 6 4
30 31 31 32 34 36 36 38 42 36 25 20 16 6 2 3 1 2 2 3 2 1 4 6 8 12 9 5 6 8 9 8 6 4 3 4 5 4 4 7 8 6 4 4 3 4 3 4 4 3 3 4 3 5 4 5 8 8 5 4 3 5 2 1 4 4 5 5 5 3 5 5 3 3 3 1 3 4 5 3 1 2 1 3 6 8 3
30 30 31 31 33 35 34 35 40 38 28 24 19 8 3 2 1 3 3 3 2 1 3 4 6 8 8 6 6 8 9 8 6 6 6 4 5 5 5 4 5 7 8 7 5 2 3 2 2 2 2 4 3 2 2 3 6 7 5 3 3 4 2 0 3 5 4 5 5 4 5 6 4 2 4 1 4 4 4 3 1 1 1 1 4 7 4
29 30 30 30 32 33 32 33 36 38 33 22 11 6 6 2 2 1 2 3 5 3 2 3 3 3 5 4 5 7 8 7 4 5 7 6 4 4 3 3 4 4 8 9 5 2 3 4 3 2 1 2 2 1 1 1 4 6 4 3 4 4 3 0 4 4 1 3 5 4 5 7 4 2 4 4 3 3 2 3 2 0 2 3 4 4 1
28 29 29 29 30 31 31 31 32 35 34 23 8 4 9 5 1 2 4 2 5 4 2 3 3 2 1 1 3 4 6 8 5 4 5 7 7 5 3 2 3 4 7 7 5 6 5 6 6 4 3 4 3 2 2 0 1 2 3 2 3 2 4 3 3 3 3 2 3 3 4 6 2 3 1 2 2 4 4 3 3 2 1 4 4 3 3
27 29 29 28 29 30 29 29 29 30 31 25 11 5 10 5 1 3 4 4 4 4 2 4 3 2 2 2 2 3 5 8 7 3 2 5 7 6 5 4 4 3 3 4 5 6 7 7 4 2 2 2 3 2 3 3 1 0 1 2 2 3 4 3 2 3 3 3 3 4 3 1 4 5 3 3 3 5 6 4 3 3 2 2 3 2 2
26 28 28 27 27 29 29 28 28 26 26 23 16 13 13 6 1 2 4 4 3 4 4 4 2 2 4 4 2 3 4 6 5 3 2 2 5 6 6 7 4 1 3 7 8 6 4 3 3 3 3 4 4 3 5 6 5 3 2 3 2 3 4 2 2 4 3 1 5 4 3 5 4 5 3 2 5 7 9 7 3 4 4 4 5 5 4
25 26 27 26 26 27 28 27 27 25 23 22 20 20 18 9 2 3 4 5 3 4 2 2 3 2 4 5 3 3 4 4 5 3 2 2 5 6 5 4 2 4 7 8 8 5 2 2 3 2 4 5 5 6 6 6 6 7 6 3 4 4 3 2 2 3 3 2 3 4 4 5 4 5 5 2 3 4 7 6 5 5 4 3 4 3 1
24 25 26 25 24 25 27 27 27 25 22 20 21 23 23 15 6 2 2 5 2 2 0 1 5 6 5 5 5 3 4 5 5 4 3 2 3 3 2 2 6 8 6 3 4 4 2 2 3 2 3 4 4 3 3 3 5 8 8 5 2 5 4 2 2 2 3 4 2 1 3 4 3 2 2 1 1 1 3 3 2 3 2 1 4 3 2
23 24 25 24 23 24 25 26 26 25 22 19 19 23 26 21 9 2 2 4 3 2 4 2 4 5 5 4 4 4 4 5 4 4 4 3 2 3 3 5 10 10 2 3 3 3 2 2 3 2 2 2 1 0 2 3 3 5 6 6 3 3 3 3 4 2 3 5 3 1 2 2 4 3 2 1 1 3 4 5 1 4 3 0 4 4 3
22 23 24 24 23 22 23 24 25 26 23 19 18 22 26 23 14 5 2 4 4 2 3 3 3 2 2 2 3 4 3 3 3 3 4 5 4 5 5 7 10 8 4 5 3 3 4 2 2 2 1 0 1 1 2 2 3 5 6 7 8 6 3 3 4 2 2 5 4 2 3 4 4 4 5 5 1 3 4 5 1 4 3 2 3 5 4
21 22 23 23 22 21 22 23 24 25 24 20 16 19 24 23 17 9 3 3 5 1 3 3 1 2 3 2 3 3 2 2 2 2 2 4 4 6 7 7 8 6 6 5 3 4 5 3 2 2 1 1 0 1 2 2 3 6 7 7 8 6 5 4 4 2 1 4 3 2 2 2 2 3 6 6 1 4 6 2 4 3 3 3 3 5 4
21 21 22 22 21 20 20 22 23 25 25 21 15 15 22 23 18 10 4 3 5 2 4 3 3 3 2 1 1 2 1 2 2 2 2 3 2 3 5 5 6 6 5 4 3 3 4 3 2 2 0 2 1 1 1 2 2 3 4 3 4 4 3 2 3 2 2 3 3 0 2 2 2 4 6 6 1 4 4 4 6 2 4 3 3 5 4
20 20 21 21 20 20 20 20 22 24 25 24 17 13 18 22 19 13 7 3 4 2 5 5 4 3 1 2 1 2 2 1 1 2 2 3 2 2 3 2 3 4 3 3 3 2 3 2 1 2 1 3 2 2 1 2 1 2 2 2 2 2 3 2 2 2 2 2 3 1 1 2 3 4 5 4 1 2 2 4 3 1 3 3 4 4 3
19 19 20 20 20 19 19 19 21 22 24 25 21 14 15 19 17 13 8 3 3 2 4 5 4 3 3 3 4 2 3 3 2 3 3 2 3 3 4 3 3 3 4 3 3 2 2 1 2 1 1 2 1 2 1 1 1 1 1 1 1 1 1 2 1 1 1 2 3 1 1 2 4 3 3 3 2 3 2 0 1 2 2 3 3 2 2
19 19 19 19 19 18 18 17 19 21 22 24 22 17 15 17 15 12 8 5 4 3 3 5 5 5 5 4 3 3 4 3 2 2 1 3 3 4 3 2 2 1 2 2 2 1 1 1 1 1 1 1 1 2 2 1 2 3 1 3 1 1 1 1 1 1 1 2 1 1 2 3 4 2 2 2 1 2 2 2 2 2 1 2 2 1 2
18 18 18 18 18 17 16 16 17 19 21 22 22 20 17 16 13 10 8 7 6 3 2 3 4 5 7 6 6 6 5 4 3 2 2 1 3 3 3 1 1 0 1 2 2 2 1 1 1 1 1 1 2 2 2 3 1 3 3 3 2 1 2 2 1 1 2 2 2 3 2 3 4 3 3 2 2 1 2 3 3 1 1 1 2 2 3
18 17 16 16 17 16 15 14 15 17 19 20 21 20 19 19 16 9 6 6 6 3 4 5 3 4 6 6 6 8 7 6 7 6 3 3 2 2 2 1 1 1 0 2 2 1 1 1 1 2 1 1 2 2 3 2 1 1 2 1 1 1 1 3 3 2 2 3 3 2 2 0 2 3 2 1 2 1 2 4 3 2 2 2 2 2 2
17 16 15 15 15 15 14 13 13 14 17 18 18 18 18 20 18 11 5 4 4 3 4 6 4 2 4 6 7 8 8 7 7 8 8 5 3 1 2 1 0 2 3 1 2 2 2 1 1 2 2 1 2 3 2 2 1 0 1 2 3 2 1 3 3 2 3 2 2 3 2 1 1 2 2 2 2 1 1 3 3 2 2 2 1 2 2
17 16 14 14 14 14 13 13 12 12 14 15 14 16 19 21 20 14 8 5 3 3 2 4 2 2 5 6 6 7 8 7 6 7 8 7 6 4 2 1 1 3 2 1 2 3 3 2 2 3 2 1 1 1 2 1 0 1 2 0 2 1 2 3 3 2 1 2 4 3 1 2 3 1 1 1 1 2 1 1 1 1 1 1 1 1 2
17 16 14 14 14 13 12 12 11 11 12 12 12 14 18 20 20 16 10 5 2 3 3 2 4 5 9 6 4 7 8 5 5 5 5 5 5 3 4 3 2 3 3 3 3 4 3 2 3 2 1 1 2 2 2 1 1 1 1 2 3 1 2 1 2 3 2 1 1 0 1 3 5 4 3 3 3 1 2 3 3 3 3 3 3 3 3
16 15 15 14 13 12 12 11 11 11 10 9 8 9 13 17 19 18 14 8 2 1 2 1 4 7 10 5 5 11 8 3 3 5 4 3 3 3 2 4 3 3 4 4 3 2 3 3 2 1 1 0 2 2 1 1 2 2 1 2 1 2 1 1 3 4 1 2 3 3 2 2 4 4 4 5 4 2 1 3 3 3 4 4 4 5 5
15 14 14 13 12 12 11 11 11 10 10 8 5 3 7 13 17 18 16 12 5 3 2 2 4 6 6 4 7 12 8 3 4 5 5 4 2 2 2 3 4 2 3 3 2 2 3 2 1 1 1 0 2 2 1 2 3 2 2 3 0 3 4 3 4 3 4 6 5 4 4 2 4 4 4 4 3 3 1 2 3 4 5 4 3 5 6
15 14 13 11 11 11 10 10 9 9 10 9 3 1 2 6 12 16 17 14 8 2 2 0 3 3 2 4 8 10 8 4 4 4 5 5 2 0 1 3 3 2 2 3 3 1 0 1 1 1 1 1 2 0 1 2 2 1 4 4 3 2 3 5 6 4 2 4 5 5 4 3 3 3 4 4 1 3 2 4 4 4 6 5 3 4 3
15 14 12 10 10 10 9 8 8 8 10 9 4 2 2 3 7 13 16 15 10 3 3 2 1 1 3 4 5 8 9 7 4 4 5 5 4 1 1 3 3 3 3 2 1 0 1 1 1 1 2 0 3 2 1 2 1 3 5 5 4 3 2 2 4 3 0 2 5 5 4 3 2 1 1 2 2 2 2 4 4 4 5 3 3 3 3
16 14 12 9 9 9 8 7 6 6 9 9 5 3 2 1 6 11 14 14 10 3 3 2 1 2 4 3 1 6 10 7 4 4 4 3 3 2 2 2 1 1 2 1 1 0 2 1 1 1 2 2 4 3 2 3 1 3 5 6 5 3 2 2 2 2 2 2 4 3 0 1 3 2 1 3 5 2 1 2 2 1 2 5 7 6 5
17 15 12 9 8 9 8 6 4 4 6 7 5 4 2 3 7 10 12 12 9 2 3 2 2 1 2 3 4 7 8 5 4 5 4 3 3 3 3 2 1 1 3 3 1 1 1 2 1 0 1 2 4 3 2 4 2 5 6 6 5 3 2 2 1 2 2 3 4 2 3 4 2 1 2 2 4 1 2 2 2 4 6 6 6 4 3
17 16 13 9 8 9 7 4 2 3 3 3 6 6 5 6 7 8 11 10 5 1 3 2 1 0 2 3 4 6 6 4 3 4 3 3 3 2 2 3 2 1 2 2 1 1 1 1 1 0 1 2 4 3 1 2 5 6 5 4 4 3 2 2 2 0 2 2 2 1 3 3 2 2 2 1 2 1 2 4 4 5 4 4 3 1 1
17 15 12 9 8 8 6 4 3 3 2 2 5 3 8 9 6 7 10 7 2 2 2 3 2 1 3 2 2 4 5 3 2 2 2 3 3 2 1 3 2 1 2 1 1 0 1 1 1 1 1 2 2 2 1 4 6 5 2 1 1 3 3 2 3 2 2 3 2 1 3 3 2 2 2 2 2 1 1 3 4 3 2 1 1 1 2
17 13 11 8 6 6 3 1 2 2 2 3 2 4 11 12 7 6 7 4 2 2 2 2 2 0 2 3 2 4 4 2 1 1 1 2 3 2 1 1 3 2 1 1 1 1 1 1 2 1 1 1 1 1 4 5 6 4 2 3 3 4 4 1 3 3 2 2 3 2 2 3 3 1 1 3 2 1 1 2 2 2 1 1 3 4 4
16 12 9 5 2 0 1 2 3 2 2 2 5 10 12 10 5 3 2 1 3 2 1 1 2 1 2 1 2 3 3 3 2 2 1 1 3 3 2 2 2 2 1 2 1 1 2 1 2 0 1 1 2 4 5 5 5 4 4 5 6 5 4 3 4 3 1 3 3 3 2 3 2 3 2 1 1 1 2 2 1 1 0 3 4 4 4
15 10 5 1 2 2 2 2 3 3 5 8 10 10 7 4 2 2 2 3 3 3 2 3 0 2 2 2 2 2 3 2 2 3 2 1 2 2 2 2 1 2 2 3 1 2 1 1 3 2 2 3 4 6 6 5 5 5 5 5 6 5 3 2 3 4 3 2 4 3 1 0 2 3 2 1 1 2 2 2 2 2 2 3 4 4 6
12 6 3 3 2 2 2 1 3 8 11 10 7 4 2 2 2 2 2 2 2 3 3 2 1 2 1 1 2 2 1 1 2 2 2 1 1 2 2 1 1 1 2 3 3 2 1 3 3 1 3 4 4 5 5 5 5 5 4 5 5 5 4 3 4 5 3 2 3 3 1 1 2 2 2 2 2 3 3 3 4 3 2 4 5 7 9
11 6 5 5 3 1 2 6 10 11 8 4 1 0 0 2 2 1 2 1 1 2 2 0 2 2 3 2 4 3 1 2 3 2 1 1 1 1 1 1 1 1 2 3 3 1 1 2 2 1 3 5 4 4 4 3 3 4 3 4 4 5 5 5 5 5 5 4 4 4 4 3 3 3 2 2 3 3 3 3 4 3 4 6 8 9 10
15 9 5 3 2 5 8 9 7 4 1 1 2 1 1 1 1 0 0 2 1 1 1 1 2 2 3 3 3 3 1 2 1 1 2 1 1 0 1 1 1 1 1 2 3 1 1 1 2 2 2 4 4 4 3 2 3 4 3 3 4 5 7 6 6 6 5 3 3 4 3 2 2 2 2 3 3 3 2 3 4 5 6 8 10 10 11
13 8 3 3 8 12 12 7 3 1 2 2 2 2 1 1 1 0 1 2 1 2 2 1 1 2 1 2 2 2 2 1 2 2 1 2 2 1 1 1 1 1 0 4 3 2 3 1 1 2 4 5 5 4 3 2 3 3 3 2 4 6 7 6 4 4 4 3 2 2 2 1 1 2 2 3 3 3 3 4 5 7 8 9 11 12 13
14 10 8 9 12 11 7 4 3 2 2 2 1 1 0 0 1 2 1 1 1 2 2 1 1 2 2 2 3 2 1 0 1 2 1 2 2 1 1 1 1 1 2 4 1 3 2 1 2 3 5 6 5 4 3 4 5 4 3 4 6 7 7 6 5 4 4 3 2 2 2 1 1 2 2 2 2 2 3 5 7 9 10 11 12 13 15
13 7 4 5 6 4 2 2 1 1 2 2 2 1 2 2 2 2 2 2 1 1 2 1 1 2 2 2 1 1 0 0 1 2 1 1 1 1 2 2 1 1 3 1 3 3 0 2 3 4 5 5 4 4 4 4 4 4 3 4 6 7 6 6 5 5 4 3 3 3 2 2 1 1 1 1 2 3 5 7 8 10 12 12 13 15 16
9 4 2 1 2 1 1 1 0 1 2 1 1 2 1 2 1 1 1 2 2 2 2 2 2 2 3 2 0 0 0 0 1 1 0 1 0 2 1 1 2 2 1 2 2 0 2 3 4 5 5 4 4 4 4 4 4 4 3 3 3 5 5 5 5 5 4 4 4 3 3 2 2 1 2 3 4 6 8 10 10 11 12 13 15 16 16
5 2 3 3 2 1 0 1 1 1 1 0 1 3 3 2 2 2 2 2 2 2 3 3 2 2 4 3 1 0 0 1 1 0 0 0 1 1 1 2 1 1 1 1 1 1 2 3 4 4 4 5 5 4 4 5 4 4 3 2 3 4 6 6 6 6 6 6 6 5 5 4 4 4 5 6 7 9 10 11 12 12 12 14 16 16 13
1 1 2 2 2 1 0 1 1 1 1 1 2 3 3 3 4 4 2 2 1 3 5 4 2 2 3 2 1 0 1 1 1 0 1 2 1 1 2 1 0 1 1 1 2 2 3 5 5 4 5 6 6 4 4 5 4 3 4 4 4 5 7 8 7 7 8 9 9 8 7 7 7 7 7 8 8 9 10 11 12 12 13 14 14 13 10
0 1 2 2 1 2 1 1 2 2 2 2 2 3 3 3 3 2 2 2 2 3 4 4 2 2 2 1 0 1 1 1 0 1 0 2 0 1 1 1 0 1 1 1 3 4 4 4 4 4 5 5 5 4 4 4 4 4 5 4 4 5 7 8 8 9 10 10 10 9 9 9 9 9 9 9 10 10 10 10 11 12 13 13 12 9 7
0 1 2 1 1 1 1 2 2 2 1 2 2 2 2 1 1 3 3 2 1 2 4 3 2 2 2 0 0 1 1 0 0 1 0 1 1 1 1 1 2 2 2 3 4 4 3 4 4 5 6 5 4 4 5 5 5 6 6 5 5 6 8 8 9 11 12 11 11 11 11 12 11 11 10 10 11 11 10 10 11 12 11 9 8 7 6
1 1 1 1 1 2 3 1 1 2 3 2 2 1 1 2 2 4 3 2 1 2 2 2 1 1 2 0 1 0 1 1 1 1 0 1 1 1 0 1 2 3 3 3 3 3 3 4 5 5 6 5 4 4 5 5 5 6 7 8 9 9 10 10 12 13 14 13 13 13 13 13 12 12 11 10 11 11 10 10 10 10 8 6 7 7 6
0 0 1 1 1 2 2 1 0 2 3 3 1 1 1 2 3 4 3 1 1 3 2 1 1 1 1 0 1 0 2 2 1 1 1 1 2 2 1 2 3 4 3 3 3 3 4 4 3 3 5 6 4 4 5 5 5 6 9 11 12 11 11 12 13 13 14 15 15 15 14 14 13 12 12 11 11 11 11 10 9 8 6 6 7 7 6
1 2 2 2 2 3 1 0 1 3 4 2 2 2 2 2 3 3 2 1 2 3 2 1 1 0 0 0 1 1 1 1 1 1 2 2 2 3 2 4 5 4 3 3 3 4 4 4 3 3 4 5 5 4 5 5 7 9 10 11 12 12 11 11 12 13 14 15 16 16 15 16 15 14 14 13 11 10 10 10 8 7 7 7 8 7 6
2 2 2 2 2 3 2 1 2 3 4 3 3 3 3 3 4 3 1 1 1 0 1 2 1 1 1 1 1 0 0 0 1 1 2 2 2 3 4 4 4 3 3 4 4 3 4 4 4 4 4 5 5 5 6 6 7 9 11 11 12 12 12 12 12 13 13 14 15 16 17 18 18 16 14 11 9 8 8 8 6 5 7 9 9 8 7
Wind_Direction
359 356 357 2 3 2 2 2 4 3 358 351 351 354 11 44 182 338 3 23 174 61 46 259 354 93 224 259 198 219 112 166 281 298 34 331 222 7 285 206 207 222 228 225 174 103 93 92 357 184 140 79 342 317 319 311 77 96 154 191 164 117 92 85 35 310 314 310 320 354 42 74 70 44 51 86 69 89 135 169 171 135 155 149 102 231 264
360 357 357 2 4 3 2 3 3 5 3 353 347 1 113 17 229 313 15 38 88 73 51 316 333 309 306 359 11 329 43 38 358 60 34 356 21 2 296 265 10 317 41 70 85 23 100 84 13 4 116 83 331 358 3 12 51 49 193 190 166 115 100 102 91 23 353 346 338 340 358 43 68 17 350 43 78 80 104 123 85 109 192 151 135 219 253
0 358 358 3 5 4 3 4 4 5 4 355 353 27 195 7 314 267 11 36 53 65 31 271 269 310 343 22 20 0 28 37 25 82 69 12 38 76 294 318 343 23 44 49 24 15 82 100 21 14 11 337 351 12 14 34 50 19 15 40 97 114 111 113 121 145 174 188 248 249 242 47 59 359 352 37 89 98 129 114 87 149 203 141 147 216 260
1 360 359 4 7 6 5 6 5 5 4 0 6 37 74 48 34 310 335 23 42 46 1 359 9 2 9 30 22 13 1 332 14 83 74 26 45 49 353 339 15 41 42 48 23 7 19 69 71 40 346 312 336 347 350 30 24 10 40 37 66 109 78 93 124 144 182 185 211 225 158 99 94 331 346 11 56 96 103 90 106 183 170 185 218 203 218
2 0 0 5 9 8 8 8 8 8 8 6 15 40 47 84 48 352 324 346 7 23 19 13 9 7 25 56 11 357 358 350 357 39 47 32 60 61 26 19 31 23 30 71 40 352 360 33 48 22 330 291 304 319 331 30 8 351 28 24 50 101 71 86 100 76 221 176 183 264 91 103 139 170 346 358 13 75 92 103 195 154 116 270 257 184 169
3 1 1 6 10 11 11 10 11 12 14 23 53 57 28 55 108 275 349 10 359 5 356 350 8 20 29 64 22 5 19 32 10 344 352 19 37 67 34 20 21 350 346 106 59 354 8 28 9 348 345 337 336 336 347 25 8 2 24 12 62 103 86 199 97 51 12 35 32 49 83 84 109 132 115 18 26 69 110 154 191 147 138 231 218 145 158
3 2 2 7 12 14 13 13 14 14 20 42 61 61 353 48 58 299 12 79 105 334 324 331 8 24 22 27 25 14 17 26 13 345 349 8 14 57 66 16 9 14 36 100 78 14 42 41 356 346 352 342 359 7 349 350 2 15 29 15 72 103 54 7 107 78 34 20 12 48 92 86 54 2 325 20 81 85 113 130 156 149 181 221 156 121 112
4 3 4 8 14 16 15 15 16 15 21 43 58 51 6 54 45 315 12 59 48 14 354 0 21 21 15 20 12 6 10 14 11 16 32 24 354 25 70 32 4 29 43 67 83 77 131 112 358 5 15 350 14 44 345 318 346 6 23 1 17 86 101 319 88 73 20 2 17 46 91 113 115 341 330 47 111 90 72 77 58 65 65 66 118 106 71
4 4 5 8 15 18 17 17 17 17 22 38 56 38 14 4 238 350 73 39 2 355 355 31 62 23 8 13 356 356 1 356 7 40 41 50 27 6 25 358 344 29 43 47 46 347 199 194 259 276 268 309 329 6 306 305 345 357 16 357 356 58 116 87 67 86 307 340 39 57 80 88 85 357 353 20 100 115 76 64 66 142 150 117 107 112 98
5 4 6 9 15 20 20 20 19 19 24 35 54 17 7 359 298 37 90 73 4 356 351 17 57 53 351 322 334 343 342 347 20 62 19 26 38 8 337 352 16 31 29 20 355 323 278 241 248 235 223 264 277 285 304 319 79 6 20 24 8 67 127 145 98 119 214 305 33 52 67 65 12 276 300 34 111 128 104 55 26 357 138 144 156 176 221
6 5 6 9 14 20 22 23 22 21 26 33 43 18 4 4 304 8 69 80 0 345 26 25 31 36 340 297 309 330 346 1 20 56 15 1 6 359 11 44 65 60 22 342 315 300 272 262 273 225 186 291 300 309 332 350 18 187 50 41 18 51 93 132 118 125 204 275 15 49 70 125 248 266 249 201 175 135 112 78 8 350 25 128 148 135 108
6 6 7 8 14 20 24 24 24 24 26 30 35 29 13 5 183 42 77 96 352 343 46 38 9 352 329 323 334 341 356 1 348 355 65 1 341 355 23 37 47 36 338 326 323 314 280 294 337 352 9 359 346 13 34 24 2 357 63 88 96 69 74 106 82 105 160 314 44 84 195 227 249 301 318 162 143 122 110 96 52 16 27 71 88 83 98
7 7 8 9 13 20 24 25 24 23 24 26 30 30 22 19 73 81 90 102 19 342 32 12 337 336 335 349 6 340 339 344 323 329 61 43 2 3 18 29 356 301 314 324 336 0 27 1 2 356 347 356 11 35 51 46 24 16 24 54 124 121 112 126 84 100 145 99 90 162 228 263 283 321 341 56 87 79 83 69 28 14 24 79 95 80 92
7 7 9 8 12 20 23 24 24 22 21 24 27 29 27 28 49 91 99 100 67 323 46 12 340 345 352 359 2 338 337 355 350 352 17 25 7 348 324 328 310 299 301 333 5 39 69 15 16 23 347 2 29 37 19 26 45 39 16 358 120 136 131 125 109 135 145 122 135 204 345 329 277 295 347 85 38 18 107 106 351 335 350 135 124 88 32
8 7 9 8 11 19 24 24 23 21 19 21 27 30 27 24 31 73 122 114 116 36 33 22 307 320 335 347 7 18 6 360 356 347 337 335 345 317 282 312 319 313 328 78 45 41 63 58 52 38 2 17 57 4 334 341 14 37 25 12 47 102 140 162 161 174 118 101 99 41 24 287 238 245 286 311 255 218 153 118 351 307 322 146 136 107 62
7 7 9 8 9 17 24 24 22 20 18 18 26 31 27 21 23 39 85 103 104 67 341 299 245 265 320 317 8 49 42 350 344 349 343 343 340 320 305 315 322 334 38 64 58 57 54 67 102 103 40 335 232 291 355 350 327 337 5 27 38 43 52 108 124 138 116 114 132 167 185 223 240 257 293 318 295 183 122 85 291 277 331 31 109 97 72
5 6 7 7 9 16 24 24 21 21 19 18 23 30 27 21 20 25 44 78 84 101 279 284 139 76 32 353 347 22 56 357 9 51 351 329 318 315 322 330 334 3 53 57 33 48 57 60 69 69 21 295 78 21 348 22 1 333 340 7 25 26 19 46 90 106 109 122 139 183 193 226 275 289 303 314 304 127 101 104 249 275 9 26 86 85 68
5 6 6 7 10 17 25 25 21 20 20 20 24 30 26 22 23 30 48 90 83 58 306 330 56 53 37 66 337 340 38 12 13 47 334 319 324 321 323 332 342 1 43 66 53 54 66 51 44 86 96 310 27 86 350 23 35 324 323 354 13 15 16 46 101 88 60 100 112 329 250 253 301 310 307 309 331 112 121 204 237 299 28 23 67 76 63
6 7 6 7 11 19 25 25 21 20 20 21 26 32 25 20 23 36 49 79 97 59 319 338 46 47 1 89 61 357 38 54 47 72 35 345 329 319 307 315 354 355 18 64 67 70 79 41 343 105 92 326 339 96 54 29 32 317 334 18 16 13 12 18 68 60 38 94 107 88 271 305 336 315 307 325 95 154 201 217 221 89 57 30 40 55 53
5 5 6 7 12 21 25 23 19 18 18 19 24 31 29 22 23 35 47 70 103 63 333 341 29 24 6 58 71 57 50 40 42 87 87 293 298 23 25 341 340 1 15 44 51 45 82 78 308 39 87 308 321 97 81 13 347 316 7 55 24 36 49 18 25 43 43 65 70 101 187 306 331 323 324 7 94 175 208 166 55 82 89 67 45 21 349
3 4 5 6 10 18 23 21 18 16 15 17 20 26 30 26 26 36 45 61 95 83 350 339 3 11 15 36 63 85 81 50 25 82 133 275 308 68 95 239 271 6 24 55 66 14 60 146 297 16 74 305 346 89 111 49 347 322 53 95 33 4 107 146 253 341 77 91 92 165 205 287 321 15 85 61 101 176 172 105 49 33 92 107 104 245 244
0 1 4 9 12 16 20 18 16 16 14 14 19 25 26 23 27 42 48 54 83 109 343 340 355 11 21 20 10 11 18 11 4 32 121 28 4 63 118 168 325 346 178 105 70 22 14 89 73 66 61 355 19 67 95 100 60 313 354 68 39 3 110 133 106 63 101 129 156 171 199 291 345 46 91 105 104 129 140 127 111 98 192 171 154 211 229
358 359 5 13 15 16 17 15 13 14 13 13 18 24 24 22 26 43 62 60 70 70 22 17 17 11 16 17 8 2 357 355 0 8 47 75 35 12 52 52 358 328 111 98 110 135 127 114 111 97 83 41 77 70 49 69 118 304 346 39 344 326 70 81 82 101 80 57 75 127 162 301 18 33 41 99 123 155 140 136 153 203 227 217 211 234 244
355 358 7 15 15 15 15 12 11 10 10 13 18 22 27 29 27 31 53 56 54 62 22 17 30 22 334 327 339 353 353 350 351 357 16 52 87 52 354 324 137 33 358 312 168 132 103 121 107 82 83 116 100 91 74 48 32 51 52 3 315 299 67 79 84 103 91 85 165 167 160 189 2 18 26 53 54 3 126 138 169 222 246 235 228 246 245
351 356 10 17 14 15 15 12 11 9 7 11 17 22 32 35 28 32 53 54 56 114 72 346 324 323 335 333 344 353 346 337 336 343 4 34 73 112 142 178 105 61 17 294 106 75 62 68 75 74 98 124 92 101 124 123 128 103 91 354 282 301 68 80 81 80 102 217 229 221 231 278 289 280 185 146 89 62 66 116 164 197 280 265 248 234 209
350 356 10 14 12 14 14 11 14 13 8 10 18 26 35 35 29 34 48 46 63 112 77 310 262 325 355 5 15 1 344 326 326 331 344 14 40 86 134 139 85 53 68 79 79 88 94 81 74 89 110 95 87 122 153 164 157 87 79 228 233 36 45 77 96 61 32 271 248 53 358 307 302 293 258 233 214 162 16 1 14 26 359 339 328 302 252
348 355 5 7 6 10 10 9 14 17 13 11 19 31 38 37 33 33 33 28 33 112 36 295 254 323 345 340 346 358 353 287 293 327 318 320 354 13 63 92 72 36 44 43 32 77 87 56 53 116 189 352 67 91 142 155 112 86 2 278 272 75 75 133 95 77 25 243 201 156 145 260 269 254 239 232 216 174 45 358 350 340 324 323 321 309 306
344 352 359 359 359 2 3 3 10 19 16 8 10 36 37 36 35 31 24 23 41 140 159 218 268 316 338 318 338 2 7 297 287 312 308 306 327 346 17 72 80 52 50 53 35 50 65 46 61 160 216 203 72 44 355 37 56 53 287 282 224 140 163 162 136 146 216 232 215 167 143 204 242 226 220 230 204 151 148 274 264 265 277 278 269 283 300
338 345 351 351 352 354 354 355 2 13 14 8 359 292 1 30 36 27 17 14 23 81 136 45 320 326 321 300 330 3 19 353 311 293 289 298 305 337 68 88 102 107 104 97 88 92 173 230 203 214 276 157 134 4 356 55 59 271 251 257 249 195 179 167 155 155 229 237 212 178 164 202 244 242 245 258 194 147 213 265 260 267 284 281 256 253 256
336 339 342 345 347 345 343 346 351 1 8 10 14 10 4 27 28 18 10 5 6 33 107 80 27 324 304 296 321 0 6 354 324 299 293 296 300 309 115 127 121 100 91 80 70 146 234 268 299 299 297 153 121 109 100 123 168 259 258 257 259 258 254 198 163 142 303 223 186 174 181 213 286 314 271 337 30 111 230 283 291 287 286 256 176 154 147
334 332 332 337 340 337 335 336 339 353 5 7 15 46 61 350 341 353 358 356 353 18 101 78 311 313 330 318 315 349 348 346 342 332 325 330 348 18 91 130 136 92 100 94 33 152 201 220 18 342 323 55 94 111 135 130 151 277 266 254 250 249 265 267 200 170 184 148 119 105 97 326 355 11 35 7 3 359 236 280 298 212 160 147 143 139 134
335 331 328 328 329 328 323 315 315 343 1 12 35 69 62 333 328 337 347 348 347 24 103 44 1 352 334 311 313 337 344 353 14 10 4 16 31 46 61 61 57 99 108 108 89 300 213 189 149 350 334 60 85 96 102 113 163 238 239 232 238 230 206 228 217 165 149 118 105 60 334 337 347 293 238 312 341 339 189 177 132 132 138 138 136 138 139
337 332 327 318 316 321 315 291 281 317 345 37 84 82 37 2 345 337 338 342 349 76 108 79 71 310 289 287 313 344 353 357 7 13 9 355 7 27 17 14 30 43 48 77 162 241 219 144 120 46 315 37 85 97 106 179 213 237 244 231 222 189 167 228 268 76 50 44 85 191 259 268 244 197 196 272 346 50 157 152 138 135 135 130 118 66 352
339 334 329 317 310 316 311 277 251 268 287 121 121 67 4 355 347 335 334 339 20 65 46 76 109 285 316 326 319 340 360 10 354 357 344 332 357 27 343 344 9 11 344 4 77 29 314 205 159 172 287 359 64 98 250 253 249 255 272 247 175 110 87 344 316 310 331 10 48 132 198 191 147 95 57 10 342 334 162 161 159 151 121 111 161 271 288
340 337 332 318 306 311 312 266 230 222 157 123 114 349 344 341 333 327 328 338 56 52 1 52 95 87 356 11 324 312 347 14 311 278 283 314 352 37 105 16 3 343 294 344 43 29 311 217 175 179 260 331 30 212 235 250 256 247 179 163 157 119 105 305 278 267 278 13 54 72 100 117 129 147 341 339 325 287 242 230 198 160 119 265 258 266 279
341 341 339 323 289 286 96 99 88 91 93 17 335 332 334 335 336 336 331 24 70 89 166 73 58 122 137 121 275 300 353 8 315 298 305 311 336 9 79 75 356 291 318 44 43 285 273 210 137 107 303 252 209 226 225 222 228 216 186 190 192 164 151 196 210 189 116 45 46 49 81 117 175 222 241 314 317 241 242 267 265 146 192 266 276 289 298
345 349 355 12 142 98 69 82 72 30 337 322 323 329 335 350 40 52 57 65 48 43 94 105 159 219 169 175 250 298 358 354 315 331 347 330 308 333 43 62 306 272 355 19 344 230 263 31 92 116 225 219 219 239 236 213 210 212 199 195 196 184 180 192 154 129 106 19 359 351 341 212 250 248 225 188 231 228 239 256 248 226 250 272 282 299 306
354 9 41 64 83 81 70 37 328 321 316 314 318 331 349 35 63 38 14 30 14 5 54 98 225 249 127 151 248 275 358 10 5 357 329 290 314 341 17 38 272 257 359 321 268 218 45 22 46 133 247 260 266 261 249 226 218 218 196 176 181 186 183 165 133 127 145 269 304 306 283 276 276 254 201 181 216 233 248 255 244 239 273 294 294 302 306
22 38 35 34 56 145 289 312 309 306 306 312 339 86 344 20 43 27 332 351 4 349 18 72 225 196 149 192 268 273 125 73 32 2 296 277 319 332 352 341 308 29 36 311 287 326 31 344 356 10 292 292 292 274 255 223 203 212 203 181 178 172 162 164 172 176 187 218 241 229 208 215 238 231 198 198 229 247 264 267 256 260 291 301 300 300 299
25 28 22 28 359 311 318 323 316 303 311 69 47 43 45 23 41 104 354 20 21 301 250 202 225 211 167 177 257 275 183 113 104 228 233 258 268 171 72 319 274 52 43 288 283 36 81 301 342 3 286 266 266 271 266 206 186 209 215 187 174 174 175 185 206 211 203 206 224 212 187 179 203 208 201 205 215 226 251 274 282 288 291 293 295 295 293
5 2 346 311 309 314 324 343 15 73 82 57 24 33 62 17 326 23 69 52 358 277 254 142 337 306 276 154 185 236 233 157 139 140 139 300 296 88 89 277 283 63 36 255 260 70 79 70 323 296 251 242 255 276 272 204 195 224 232 192 177 186 187 183 186 192 181 166 170 169 137 125 210 226 229 221 208 210 236 269 287 291 289 289 293 298 302
330 316 299 295 300 308 325 2 34 40 55 61 38 20 4 297 341 3 20 74 225 278 287 200 207 259 250 191 185 209 214 149 89 91 82 295 277 136 118 320 16 61 237 245 267 59 59 343 290 272 257 254 266 277 250 205 199 215 220 194 182 185 184 170 158 169 180 182 190 181 153 157 217 228 229 234 232 239 262 279 287 291 294 297 300 305 311
330 320 299 291 298 313 347 1 10 47 58 53 45 27 353 349 10 5 326 294 281 320 304 278 283 305 287 236 211 208 199 176 104 99 118 260 271 74 65 36 37 213 236 264 55 62 159 222 227 244 258 271 277 265 244 226 217 216 219 207 194 191 186 171 163 170 182 191 201 197 179 177 194 197 215 251 273 280 283 286 289 293 301 306 308 313 320
338 348 28 355 316 339 11 327 341 80 62 39 92 108 42 326 326 345 310 293 295 305 303 305 324 312 284 265 241 138 230 224 71 75 82 276 11 68 73 239 239 240 268 22 40 326 243 233 233 246 267 288 280 252 232 224 217 212 223 225 195 180 176 168 164 167 173 183 195 199 196 197 203 211 232 253 267 274 280 287 293 299 306 309 313 320 326
350 2 26 18 344 334 62 352 336 42 95 146 166 150 153 192 218 217 217 219 235 296 319 323 306 251 252 268 318 76 218 50 47 33 262 35 43 45 220 227 239 3 31 17 350 316 282 266 264 266 271 277 277 258 224 214 208 194 190 187 169 167 175 176 173 177 186 193 197 203 214 225 233 239 248 258 263 266 272 281 291 300 306 309 313 321 327
38 77 62 48 331 306 103 88 350 8 136 194 192 166 158 183 210 224 229 218 245 297 305 304 293 266 267 282 311 340 54 65 79 208 108 82 76 246 232 216 46 43 42 354 306 271 248 251 261 267 264 270 282 277 237 220 210 188 181 181 181 188 194 192 190 194 200 201 202 209 224 234 241 247 257 266 269 268 272 280 288 295 300 303 309 318 322
18 30 68 86 307 315 41 146 204 222 222 218 197 178 179 199 219 244 256 235 240 282 296 291 269 253 257 265 308 314 347 48 82 250 103 98 168 274 349 33 293 217 170 205 245 246 243 248 259 265 266 272 282 280 257 230 207 206 212 207 195 195 198 197 198 204 207 205 206 214 225 234 242 250 258 268 274 275 277 282 287 290 294 298 304 311 311
4 27 69 108 219 248 216 223 252 264 255 240 227 216 201 187 237 279 271 243 238 315 316 314 301 277 271 264 101 281 294 13 274 262 203 113 131 324 12 5 280 253 196 192 214 230 240 248 257 270 279 279 270 262 254 233 213 211 215 214 211 207 201 197 203 211 212 210 209 216 224 233 242 249 256 266 275 279 281 285 287 289 293 295 294 296 300
61 66 124 164 225 226 212 215 319 319 294 272 264 252 200 192 241 273 272 255 289 297 272 219 182 240 263 273 72 45 278 244 213 251 33 84 166 212 184 208 256 264 245 220 211 219 238 247 258 282 293 287 268 254 248 239 227 217 214 216 219 214 204 202 209 214 213 212 215 221 228 233 239 244 249 257 266 275 285 293 296 294 292 283 271 276 295
152 230 199 174 239 258 248 139 104 294 301 319 340 289 239 236 268 281 272 247 301 320 312 208 168 215 254 303 48 322 255 237 179 142 172 215 198 172 162 220 227 229 231 226 214 218 233 238 244 278 294 291 275 254 247 242 234 227 224 225 226 221 214 214 216 216 215 217 222 226 231 234 237 238 240 245 255 269 287 298 297 287 276 264 253 257 281
219 235 233 213 216 231 239 124 209 251 271 282 252 232 221 223 251 259 251 101 34 8 345 275 234 68 56 192 211 228 242 220 131 146 220 228 183 150 181 230 231 221 225 238 234 231 238 232 215 232 275 289 282 262 250 242 236 234 235 235 234 229 224 221 219 218 220 224 226 227 232 237 239 239 241 246 253 267 284 292 289 273 260 253 244 242 259
213 215 242 256 240 226 230 257 260 250 252 252 235 207 187 204 229 235 213 70 60 274 246 231 188 108 162 219 219 193 115 173 160 196 244 246 203 177 199 227 233 216 221 244 254 251 252 249 236 231 249 271 280 279 271 254 240 236 237 236 234 230 227 225 224 223 223 224 226 228 233 239 243 244 246 246 245 250 265 280 287 272 256 252 247 243 247